This is the latest recevied weather packets stored in our database for station/object XE2CT-20. If no packets are shown the sender has not sent any weather packets the latest 10 day(s).
| Time | Temp. | Humidity | Pressure | Rain* | Wind** | Luminosity | Snow |
|---|---|---|---|---|---|---|---|
| 1778050831 | 28.33° C | 67% | 1014 hPa | - | - | - | - |
| 1778049930 | 28.33° C | 67% | 1014 hPa | - | - | - | - |
| 1778049029 | 28.89° C | 66% | 1014 hPa | - | - | - | - |
| 1778048128 | 28.33° C | 67% | 1015 hPa | - | - | - | - |
| 1778047227 | 28.33° C | 67% | 1015 hPa | - | - | - | - |
| 1778046325 | 29.44° C | 64% | 1014 hPa | - | - | - | - |
| 1778045424 | 29.44° C | 63% | 1014 hPa | - | - | - | - |
| 1778044523 | 29.44° C | 63% | 1014 hPa | - | - | - | - |
| 1778043622 | 30° C | 61% | 1014 hPa | - | - | - | - |
| 1778042721 | 30° C | 60% | 1013 hPa | - | - | - | - |
| 1778041820 | 30.56° C | 59% | 1013 hPa | - | - | - | - |
| 1778040919 | 30.56° C | 59% | 1012 hPa | - | - | - | - |
| 1778040018 | 30.56° C | 59% | 1013 hPa | - | - | - | - |
| 1778039117 | 31.11° C | 58% | 1012 hPa | - | - | - | - |
| 1778038216 | 31.11° C | 57% | 1012 hPa | - | - | - | - |
| 1778037315 | 31.11° C | 57% | 1011 hPa | - | - | - | - |
| 1778036414 | 31.11° C | 57% | 1012 hPa | - | - | - | - |
| 1778035513 | 31.67° C | 56% | 1011 hPa | - | - | - | - |
| 1778034612 | 32.22° C | 54% | 1010 hPa | - | - | - | - |
| 1778033711 | 32.22° C | 54% | 1010 hPa | - | - | - | - |
| 1778032810 | 32.78° C | 52% | 1009 hPa | - | - | - | - |
| 1778031908 | 33.89° C | 49% | 1008 hPa | - | - | - | - |
| 1778031007 | 34.44° C | 45% | 1006 hPa | - | - | - | - |
| 1778030106 | 35° C | 41% | 1004 hPa | - | - | - | - |
| 1778029205 | 35° C | 41% | 1003 hPa | - | - | - | - |
* Rain since midnight (hover to see other rain measurements)
** Current wind speed in m/s (hover to see current wind gust speed)